Regional Weather Roundup
Issued by NWS Sioux Falls, SD

Home | Current Version | Previous Version | Graphics & Text | Print | Product List | Glossary Off
Versions: 1 2 3 4 5 6 7 8 9 10 11 12 13 14 15 16 17 18 19 20 21 22 23 24 25 26 27 28 29 30 31 32 33 34 35 36 37 38 39 40 41 42 43 44 45 46 47 48 49 50

000
ASUS43 KFSD 202202
RWRFSD

WEATHER ROUNDUP FOR SE SOUTH DAKOTA/SW MINNESOTA/NW IOWA
NATIONAL WEATHER SERVICE SIOUX FALLS SD
500 PM CDT MON APR 20 2015

NOTE: "FAIR" INDICATES FEW OR NO CLOUDS BELOW 12,000 FEET WITH NO
SIGNIFICANT WEATHER AND OR OBSTRUCTIONS TO VISIBILITY.


SDZ038>040-050-052>070-202300-
SOUTHEAST SOUTH DAKOTA

CITY           SKY/WX    TMP DP  RH WIND       PRES   REMARKS
BROOKINGS      MOSUNNY   46  28  49 NW30G40   29.66R
CHAMBERLAIN    NOT AVBL
HURON          SUNNY     54   8  16 N31G40    29.69S
MADISON        FAIR      48  18  29 NW38G48   29.66S
MITCHELL       SUNNY     56   2  11 NW35G49   29.72S
SIOUX FALLS    MOSUNNY   53  10  18 NW31G38   29.66F
WINNER         MOCLDY    56  14  19 NW28G39   29.78F
YANKTON        SUNNY    N/A N/A N/A NW32G41   29.70S
$$

MNZ071-072-080-081-089-090-097-098-202300-
SOUTHWEST MINNESOTA

CITY           SKY/WX    TMP DP  RH WIND       PRES   REMARKS
FAIRMONT       CLOUDY    43  28  56 NW23G30   29.62S
JACKSON        CLOUDY    43  30  61 NW26G32   29.64R
LUVERNE        MOSUNNY   52  19  28 NW24G40   29.65F
MARSHALL       PTSUNNY   43  23  45 NW30G36   29.63S
MONTEVIDEO     LGT RAIN  39  34  81 N16G23    29.63R
PIPESTONE      MOSUNNY   48  23  37 NW26G35   29.64S
REDWOOD FALLS  CLOUDY    41  30  65 NW17G32   29.61F
TRACY          PTSUNNY   46  28  48 NW28G35   29.64S
WORTHINGTON    PTSUNNY   46  25  42 NW28G38   29.64F
$$

IAZ001>003-012>014-020>022-031-032-NEZ013-014-SDZ071-202300-
NORTHWEST IOWA

CITY           SKY/WX    TMP DP  RH WIND       PRES   REMARKS
DENISON        SUNNY     55  10  16 NW25G40   29.68S
ESTHERVILLE    CLOUDY    46  30  53 NW32G38   29.64R
SIOUX CITY     SUNNY     57  11  16 NW31G38   29.69R
SPENCER        PTSUNNY   52  27  38 NW21G37   29.64S
$$

ABBREVIATIONS USED IN REMARKS
   TC - TEMPERATURE IN CELSIUS
  WCI - WIND CHILL INDEX
   HX - HEAT INDEX
  VSB - VISIBILITY




USA.gov is the U.S. government's official web portal to all federal, state and local government web resources and services.